Wetbulb
53.13 53.38 53.61 53.59 53.40 53.19 53.11 53.03 53.15 53.19 53.37 53.43 53.64 53.99 54.16 53.83 52.67 51.10 49.49 50.53 49.20 46.55 47.53 50.05 50.76 48.61 49.15 49.27 46.73 48.67 48.14 50.62 52.12 51.70 51.66 50.37 48.61 50.52 48.89 50.34 50.73 49.89 49.08 48.51 48.47 47.15 44.52 56.81 57.38 54.73 58.06 62.97 63.97 64.57
53.24 52.79 52.67 53.30 53.43 53.47 53.22 53.16 53.22 53.40 53.25 53.27 53.46 53.75 53.79 53.43 52.44 51.59 47.99 49.72 50.40 46.62 47.39 50.45 52.90 54.33 53.43 52.95 49.20 49.02 48.69 48.74 51.90 50.49 51.07 51.77 51.42 51.90 49.62 47.36 51.58 49.35 51.92 51.44 51.90 53.21 56.33 57.85 58.02 60.44 61.50 62.16 65.07 64.17
53.57 52.73 52.35 52.48 53.16 53.52 53.37 53.36 53.55 53.34 53.31 53.19 53.27 53.37 53.52 53.40 52.68 51.15 49.19 48.57 49.22 48.18 50.12 49.94 51.36 54.72 55.17 54.78 55.59 49.30 50.44 50.37 52.28 53.33 53.24 52.66 49.83 51.89 48.88 49.13 49.20 51.56 53.75 52.58 52.25 54.76 56.52 58.03 59.64 60.23 63.14 65.08 66.03 65.12
53.17 53.06 52.46 52.15 52.28 53.11 53.25 53.27 53.37 53.43 53.44 53.23 53.06 52.96 53.17 53.30 52.23 51.05 49.51 49.40 49.03 49.21 46.97 49.27 53.87 53.05 54.07 54.59 55.08 54.58 52.20 52.91 53.47 53.62 52.15 50.98 48.75 52.91 51.47 50.63 49.63 51.99 52.76 51.52 52.66 55.35 56.79 57.70 59.38 60.46 64.06 65.46 64.87 64.52
52.85 52.96 52.60 52.37 52.36 52.65 52.90 53.08 53.35 53.28 53.15 53.00 52.86 52.71 53.11 52.75 51.91 51.74 49.86 50.48 50.57 49.76 45.90 47.78 51.49 51.31 53.21 54.60 53.09 53.57 52.99 51.75 52.16 51.48 50.90 49.38 51.95 50.36 50.20 48.56 49.08 53.07 51.23 50.12 49.81 53.69 53.50 56.44 58.85 59.76 61.82 64.80 64.38 63.61
52.68 52.80 52.93 52.48 52.45 52.18 52.40 52.88 52.88 52.63 52.68 52.37 52.54 52.69 52.43 51.98 51.55 49.91 51.95 51.03 51.61 52.32 48.42 43.40 50.12 51.49 54.77 54.34 52.16 52.30 52.66 52.03 52.49 51.46 52.38 52.67 51.27 51.44 48.40 46.80 49.31 51.51 53.55 53.66 52.65 54.89 54.41 56.15 58.97 60.29 62.00 64.79 63.86 63.72
52.47 52.55 52.69 52.71 52.70 52.26 52.29 52.38 52.34 52.25 51.98 52.00 51.90 51.86 51.58 51.19 50.60 49.30 51.46 53.07 51.24 53.09 49.28 45.10 47.62 54.23 53.86 53.79 54.97 55.17 53.83 53.15 52.72 52.56 51.35 51.50 52.00 51.67 49.98 46.61 51.40 52.98 53.71 54.43 55.51 55.49 56.34 58.52 58.08 59.90 62.57 62.44 61.02 61.87
51.41 52.28 52.27 52.71 52.69 52.54 52.38 52.21 52.15 52.01 51.86 51.69 51.48 51.24 51.36 51.28 50.10 52.42 54.80 52.35 52.61 51.54 50.77 46.47 48.57 50.89 53.84 53.00 52.06 53.10 53.88 53.02 52.17 52.46 52.07 51.20 51.82 50.63 47.52 50.99 53.23 54.34 54.72 54.85 55.07 55.99 55.06 56.47 57.36 58.78 60.83 61.21 60.42 59.51
52.17 52.18 52.00 52.48 52.65 52.57 52.38 52.24 52.07 51.80 51.41 51.29 51.15 51.09 51.43 51.80 52.51 52.34 53.26 52.72 53.19 50.45 46.77 48.58 47.09 46.27 53.09 52.00 51.81 52.68 52.01 49.89 51.62 51.44 51.24 50.73 49.91 47.83 50.28 51.70 52.72 53.90 53.14 53.57 55.05 56.62 55.87 55.53 56.71 57.96 59.38 59.26 59.13 58.44
51.87 52.23 52.39 52.51 52.59 52.43 52.29 52.19 51.84 51.32 50.97 49.74 49.43 50.23 51.53 51.87 51.36 52.91 52.10 49.96 50.78 51.12 48.92 45.84 48.55 48.34 51.40 51.61 51.02 50.29 50.12 48.60 46.14 48.58 50.94 50.08 49.62 51.63 53.03 54.54 55.07 55.01 55.21 55.57 54.37 54.52 54.93 54.94 54.64 55.90 57.69 59.43 59.63 58.70
51.62 51.96 52.39 52.41 52.57 52.45 52.15 51.72 51.44 51.11 49.21 46.88 43.93 45.58 47.85 50.12 51.74 50.94 48.54 48.36 49.16 47.85 49.30 50.56 49.79 49.10 52.99 49.18 49.80 50.00 49.10 48.68 44.33 47.01 48.04 46.77 47.88 50.86 54.57 55.19 56.45 56.67 56.36 56.15 56.47 56.66 56.20 55.77 55.67 56.67 56.70 57.35 57.82 58.55
51.33 51.44 51.85 52.17 52.17 52.15 51.96 51.27 51.54 49.69 47.45 47.03 46.60 48.26 48.04 50.41 48.93 47.38 46.92 47.85 47.25 46.49 48.97 49.68 50.11 50.72 52.39 52.39 49.93 49.04 47.77 48.07 42.48 50.06 47.67 45.16 49.64 52.89 53.74 54.55 55.82 56.43 56.17 55.74 56.34 56.24 55.88 55.51 56.17 57.04 56.53 55.74 56.12 56.33
51.12 51.16 51.41 51.86 52.08 52.02 51.92 51.43 50.77 50.86 49.23 48.98 46.53 46.64 47.24 47.76 41.03 42.97 41.11 44.77 45.35 48.69 49.94 50.07 49.83 51.79 52.37 52.62 49.62 48.58 44.62 43.96 49.29 46.35 45.24 48.99 52.35 53.36 53.81 54.36 55.79 56.78 55.94 56.28 56.08 56.45 56.48 56.26 56.93 56.03 56.20 55.78 56.13 55.68
51.00 51.04 50.95 51.53 51.92 51.85 51.54 51.38 51.46 50.51 47.14 45.84 45.73 37.64 43.60 42.84 44.70 46.17 46.35 47.72 50.30 49.97 49.66 50.98 50.82 51.67 51.25 50.06 49.47 45.82 47.88 48.73 43.93 42.48 43.95 50.82 52.77 53.23 53.92 54.83 55.90 55.14 55.28 55.26 55.66 55.82 55.12 54.99 56.13 56.38 56.85 56.07 55.92 55.19
50.60 50.94 51.18 51.51 51.36 51.49 51.29 51.15 51.11 48.80 45.20 42.98 46.04 39.43 43.64 47.35 47.74 48.54 50.02 49.52 50.54 51.05 51.02 50.28 50.80 51.86 50.34 48.23 48.60 47.20 44.42 42.52 44.66 44.83 49.32 52.54 53.56 53.23 52.96 53.88 53.52 55.67 55.77 54.85 53.93 54.34 54.38 53.71 53.44 54.25 55.97 56.22 56.57 56.21
50.82 50.68 50.40 50.78 51.30 51.11 50.82 50.52 48.43 47.57 46.03 45.36 44.49 43.46 46.91 45.70 46.95 48.34 48.77 49.43 51.02 50.79 50.87 51.15 49.19 47.32 46.68 47.85 45.60 43.78 43.04 41.75 46.30 50.73 53.24 52.76 52.82 53.28 53.09 53.19 54.01 55.37 56.32 56.00 55.91 53.36 53.85 53.91 53.83 54.60 55.94 57.18 57.48 57.11
49.93 48.53 50.64 50.92 50.94 50.61 50.24 48.31 47.29 45.90 45.32 45.09 44.25 47.78 46.99 46.22 45.47 47.25 48.73 49.88 51.29 50.23 48.14 48.40 45.29 44.33 47.62 45.97 44.50 47.87 45.45 49.59 51.76 52.80 53.52 52.88 53.02 53.33 53.51 53.17 53.28 54.26 55.92 56.05 55.70 54.25 52.85 53.42 54.94 55.65 54.99 55.35 56.98 56.58
47.64 50.60 51.01 50.85 50.56 49.70 48.55 48.10 45.80 45.73 43.85 46.00 44.12 46.24 46.46 47.60 47.43 48.54 49.56 50.42 50.39 50.13 47.96 48.09 48.66 45.41 44.16 41.92 45.31 50.13 51.15 52.56 52.74 52.59 53.39 53.73 53.93 53.46 53.22 53.95 54.48 54.62 55.01 55.88 53.72 53.34 52.99 53.66 53.43 55.13 56.41 56.57 56.07 54.44
49.69 50.56 50.42 50.57 50.04 47.23 44.26 46.53 46.80 42.68 44.63 46.91 47.43 47.47 47.66 48.29 49.75 50.74 50.51 50.86 51.04 51.82 50.54 48.73 46.53 46.32 47.42 49.53 50.16 52.10 51.87 51.99 53.41 54.45 54.12 53.59 53.44 53.75 54.61 54.90 55.18 55.50 55.25 55.15 54.25 53.23 53.09 53.89 53.14 54.72 55.82 55.38 53.73 54.03
50.08 50.01 50.35 50.92 49.84 45.03 42.94 44.71 49.21 45.57 44.28 46.38 47.45 46.71 47.48 48.30 49.99 49.65 50.26 50.13 50.61 50.37 48.85 46.84 48.13 49.85 50.41 52.47 52.62 52.47 53.47 53.29 53.65 53.27 52.74 53.38 54.08 55.07 54.84 55.03 55.14 55.37 55.95 54.68 54.34 50.55 54.49 54.23 55.05 54.92 55.75 55.73 56.16 56.66
49.34 50.11 50.84 50.48 47.26 46.05 43.69 42.69 43.78 45.81 47.32 45.38 47.59 47.38 47.24 48.95 47.79 48.33 48.93 50.02 47.86 48.21 48.02 50.52 52.23 53.91 54.26 53.44 54.20 54.53 53.09 51.42 53.86 53.97 53.60 52.93 53.44 55.25 55.21 56.01 56.00 55.99 55.89 54.80 53.36 53.73 51.09 54.75 56.14 56.69 56.51 56.28 57.18 57.37
48.36 50.00 48.34 48.02 44.21 44.61 42.91 45.31 43.07 45.65 44.19 45.08 45.41 46.75 45.29 45.08 46.03 47.57 49.34 47.11 47.69 50.28 51.14 52.34 53.58 54.48 53.79 53.25 53.13 54.68 56.18 55.28 54.34 52.49 47.61 49.21 53.50 53.58 54.18 55.33 55.42 55.37 55.28 55.30 55.15 55.02 55.89 56.76 57.01 56.00 55.76 56.26 52.94 56.06
49.56 49.03 47.21 45.49 42.24 40.91 40.38 47.47 43.07 44.44 41.80 44.35 46.56 44.62 45.34 45.94 47.55 49.02 46.82 49.00 50.63 53.28 53.84 53.30 54.69 54.85 55.12 55.48 55.88 54.84 54.63 54.81 54.09 54.83 54.42 54.36 54.57 54.51 54.03 54.82 55.68 55.56 55.03 55.20 56.11 56.03 55.98 49.87 53.35 55.73 56.41 55.62 56.26 56.21
48.95 45.96 43.20 42.57 42.14 39.20 44.64 41.94 44.58 43.46 44.50 43.28 43.17 42.25 45.09 47.06 49.66 48.62 46.22 49.34 53.00 53.91 52.19 53.11 53.81 53.73 53.85 54.04 54.07 54.33 54.36 55.26 55.77 55.40 54.96 54.21 53.69 54.32 54.75 55.33 55.33 55.58 56.11 56.93 56.00 56.01 55.48 54.33 50.54 55.05 55.87 55.88 55.95 55.41
39.50 39.29 40.51 35.35 43.51 41.81 39.64 40.57 41.90 42.68 41.08 43.06 42.40 43.57 46.03 48.69 47.52 47.70 48.20 51.34 52.71 53.39 54.98 55.24 54.52 54.62 53.35 54.65 54.95 54.78 55.52 55.24 55.03 54.98 55.98 54.75 55.07 54.98 54.66 54.78 55.20 56.03 56.53 55.45 55.48 55.55 55.66 56.03 56.04 55.98 55.88 55.89 55.71 55.63
35.08 40.63 37.32 40.55 41.00 40.40 40.87 39.87 41.10 41.64 42.33 41.70 42.91 45.92 47.62 47.92 45.54 44.68 48.66 52.21 53.36 53.80 54.63 55.27 55.32 52.65 50.90 54.92 54.08 53.23 54.40 55.24 55.77 54.88 56.63 56.03 55.47 55.21 55.28 54.84 54.67 56.26 56.10 56.43 56.54 55.68 55.67 55.83 55.99 55.74 55.69 55.05 46.69 52.87
35.60 38.61 42.16 44.64 43.61 42.76 41.70 43.21 43.74 42.55 41.20 41.74 44.89 45.26 46.30 43.59 43.82 48.92 53.69 54.85 55.14 56.85 57.49 56.78 56.25 55.72 55.93 55.65 55.47 54.56 55.01 55.79 56.30 56.89 58.28 57.71 57.25 57.21 56.74 55.69 55.48 56.35 57.27 55.39 56.50 56.37 56.09 56.17 56.17 56.06 56.08 56.52 56.64 56.31
40.50 41.98 39.65 41.77 40.84 42.70 40.72 41.88 41.36 41.15 43.04 46.45 45.77 43.53 44.25 45.32 46.91 52.28 53.78 56.09 57.12 57.83 57.44 57.41 57.40 57.26 57.24 57.62 58.01 57.73 56.79 56.11 56.27 56.28 56.40 56.81 57.13 57.47 57.59 57.40 57.81 45.56 55.95 57.01 56.43 56.49 56.66 56.94 56.96 56.74 56.62 56.26 56.73 57.15
39.88 42.88 42.58 40.33 41.47 41.96 42.04 41.64 42.58 45.36 47.01 45.99 43.68 43.46 46.06 50.03 53.47 51.52 52.18 54.13 55.61 57.14 55.07 55.13 56.21 57.04 56.74 57.20 57.45 57.80 57.64 56.81 55.96 55.19 54.58 54.86 55.54 57.20 58.05 57.58 57.35 57.15 56.98 56.42 43.50 49.32 56.14 56.06 56.77 56.99 57.22 57.13 57.43 57.07
40.52 43.14 40.87 40.96 40.40 39.97 43.68 45.90 45.47 48.00 47.63 47.83 48.16 47.74 47.81 48.99 50.92 52.58 52.06 53.01 53.99 54.90 55.17 55.19 56.01 56.13 56.61 56.17 56.83 56.53 56.79 57.31 57.34 56.87 55.26 55.07 56.09 58.29 58.23 57.83 57.45 57.36 56.62 55.39 55.66 54.95 42.47 51.28 48.41 54.61 53.97 55.22 55.33 55.50
43.90 42.33 40.55 40.89 40.96 44.26 46.29 48.36 48.35 47.57 47.40 47.36 48.50 46.41 46.30 48.31 50.52 52.61 52.63 53.60 53.86 54.31 54.18 53.82 55.73 56.58 56.19 55.40 55.31 55.59 55.11 56.22 56.39 57.28 57.66 58.13 58.40 58.71 58.96 58.36 58.33 58.17 56.36 55.70 55.18 55.19 55.30 54.75 55.60 55.20 54.77 54.73 55.00 52.73
42.42 41.20 40.45 39.35 41.51 45.54 46.42 44.72 45.11 45.12 45.88 45.39 45.09 47.11 47.18 46.51 45.28 50.16 54.55 53.74 52.87 53.77 51.82 53.14 54.81 55.46 57.51 57.77 58.30 58.42 47.33 58.68 59.69 59.14 58.83 57.94 57.78 58.65 58.99 58.65 58.36 57.90 56.59 55.94 56.07 55.44 55.11 55.09 54.98 54.75 54.63 55.06 55.29 55.23
41.53 41.90 42.16 41.83 42.07 42.12 44.84 44.30 43.98 44.00 44.76 44.61 45.24 46.29 46.40 46.24 45.50 51.36 54.16 55.76 55.74 55.61 55.66 57.32 58.06 57.36 56.93 56.65 56.79 56.51 50.97 57.67 54.75 46.08 45.57 44.75 43.75 48.46 57.67 58.63 58.08 57.40 57.03 56.34 56.50 56.56 55.89 55.38 54.87 54.87 54.56 54.92 55.29 55.68
MSLP
1025.87 1025.63 1025.36 1025.07 1024.77 1024.43 1024.09 1023.72 1023.33 1022.91 1022.49 1022.09 1021.66 1021.23 1020.79 1020.42 1020.10 1019.66 1019.28 1019.19 1018.89 1017.92 1015.98 1015.17 1014.47 1013.82 1013.54 1013.14 1012.61 1012.32 1011.63 1011.05 1010.08 1009.33 1008.81 1008.13 1007.76 1007.53 1007.30 1006.98 1006.78 1006.62 1006.46 1006.12 1006.25 1005.42 1004.71 1004.75 1004.49 1004.42 1004.22 1003.46 1003.38 1003.33
1025.63 1025.38 1025.02 1024.77 1024.51 1024.20 1023.88 1023.51 1023.13 1022.74 1022.34 1021.93 1021.50 1021.08 1020.70 1020.34 1020.02 1019.77 1019.52 1019.39 1019.42 1018.64 1016.31 1015.54 1014.52 1013.84 1013.41 1013.13 1013.26 1012.90 1012.32 1011.68 1011.08 1010.38 1010.00 1009.55 1008.83 1008.62 1008.16 1007.09 1007.42 1007.43 1007.09 1006.79 1006.69 1005.50 1005.28 1005.28 1005.00 1004.77 1004.67 1004.28 1003.79 1004.05
1025.42 1025.16 1024.84 1024.54 1024.25 1023.91 1023.59 1023.24 1022.85 1022.45 1022.07 1021.69 1021.26 1020.84 1020.47 1020.22 1019.99 1019.88 1019.57 1019.64 1019.21 1018.15 1016.05 1014.86 1013.46 1012.99 1013.11 1013.06 1013.16 1012.87 1012.33 1011.99 1011.69 1011.57 1010.83 1010.40 1009.85 1009.40 1008.66 1008.04 1008.02 1007.78 1007.96 1007.48 1006.94 1006.03 1005.43 1005.19 1005.04 1004.93 1004.84 1004.58 1004.39 1004.71
1025.21 1024.95 1024.64 1024.29 1023.97 1023.62 1023.26 1022.90 1022.52 1022.09 1021.69 1021.30 1020.90 1020.51 1020.12 1019.87 1019.73 1019.64 1019.46 1019.42 1019.21 1018.29 1016.65 1013.87 1012.99 1012.61 1012.51 1012.52 1012.55 1012.42 1012.40 1012.33 1012.10 1011.87 1011.13 1010.63 1010.23 1010.28 1009.58 1009.52 1009.20 1008.78 1008.60 1008.08 1007.22 1006.29 1005.56 1005.35 1005.28 1005.09 1004.94 1005.07 1005.09 1005.36
1025.01 1024.72 1024.44 1024.08 1023.72 1023.34 1022.95 1022.55 1022.15 1021.72 1021.27 1020.84 1020.44 1020.07 1019.70 1019.45 1019.31 1019.21 1019.13 1018.88 1018.83 1018.62 1016.81 1014.42 1013.10 1012.31 1012.15 1012.00 1011.96 1012.20 1012.33 1012.54 1012.14 1011.73 1011.24 1010.66 1010.54 1010.60 1010.20 1010.11 1009.32 1009.35 1009.31 1008.90 1007.93 1007.71 1007.60 1006.43 1006.03 1005.88 1005.46 1005.39 1005.65 1005.89
1024.76 1024.43 1024.11 1023.82 1023.45 1023.03 1022.61 1022.20 1021.77 1021.32 1020.85 1020.33 1019.83 1019.42 1019.16 1018.95 1018.87 1018.87 1018.58 1018.53 1018.52 1018.39 1017.19 1015.25 1013.42 1012.37 1011.89 1011.64 1011.71 1011.97 1012.17 1012.41 1012.15 1011.70 1011.06 1010.79 1010.93 1010.92 1010.34 1010.03 1010.07 1010.19 1010.17 1009.93 1009.08 1008.67 1008.12 1007.19 1006.56 1006.30 1006.07 1006.16 1006.24 1006.38
1024.51 1024.18 1023.81 1023.45 1023.12 1022.73 1022.27 1021.80 1021.33 1020.84 1020.32 1019.77 1019.18 1018.67 1018.33 1018.25 1018.53 1018.16 1017.96 1017.81 1018.09 1018.21 1017.10 1015.41 1013.56 1012.35 1011.99 1011.72 1011.81 1011.91 1012.18 1012.04 1011.99 1011.62 1011.40 1011.16 1011.11 1011.12 1010.63 1010.23 1010.30 1010.46 1010.30 1010.07 1009.82 1009.04 1007.68 1007.11 1006.87 1006.81 1006.66 1006.73 1007.05 1007.17
1024.20 1023.88 1023.53 1023.12 1022.76 1022.38 1021.92 1021.40 1020.86 1020.28 1019.65 1019.05 1018.46 1017.98 1017.48 1017.29 1017.97 1017.65 1017.41 1017.60 1017.90 1017.55 1016.93 1015.58 1013.67 1012.79 1012.26 1011.77 1011.77 1012.26 1011.88 1011.96 1012.17 1011.91 1011.80 1011.47 1011.41 1011.32 1010.76 1011.05 1011.08 1010.88 1010.33 1009.91 1009.83 1009.51 1008.72 1007.89 1007.58 1007.39 1007.41 1007.36 1007.59 1007.94
1023.84 1023.50 1023.17 1022.83 1022.42 1022.05 1021.55 1020.99 1020.41 1019.73 1018.99 1018.25 1017.69 1017.34 1017.53 1017.48 1017.42 1017.46 1017.50 1017.69 1017.76 1017.76 1016.47 1015.53 1014.11 1012.91 1012.55 1012.48 1012.46 1012.31 1012.28 1011.74 1012.30 1011.91 1011.92 1012.04 1011.45 1011.30 1011.75 1011.73 1011.56 1011.48 1011.36 1010.75 1010.01 1009.23 1008.60 1008.17 1007.99 1008.09 1007.98 1008.01 1007.88 1008.36
1023.53 1023.17 1022.83 1022.47 1022.09 1021.71 1021.24 1020.66 1020.01 1019.21 1018.36 1017.62 1017.35 1017.47 1017.32 1017.36 1017.58 1017.41 1017.66 1017.49 1017.27 1016.87 1016.51 1015.19 1014.54 1013.33 1013.27 1012.79 1012.52 1012.63 1012.56 1012.45 1011.93 1012.40 1012.42 1011.99 1011.81 1012.13 1012.11 1012.11 1012.03 1011.82 1011.47 1011.03 1010.24 1009.21 1008.89 1008.59 1008.68 1008.74 1008.83 1008.92 1008.61 1009.10
1023.17 1022.84 1022.48 1022.14 1021.78 1021.40 1020.96 1020.48 1019.81 1018.98 1018.01 1018.13 1018.36 1018.14 1017.90 1017.45 1017.09 1016.73 1016.43 1016.38 1016.20 1015.72 1015.36 1014.51 1014.13 1013.61 1013.53 1013.13 1012.84 1013.26 1012.81 1012.75 1012.29 1012.38 1012.17 1011.92 1011.85 1012.08 1012.07 1011.94 1011.85 1011.71 1011.39 1010.97 1010.61 1010.06 1009.67 1009.15 1009.02 1009.06 1009.16 1009.78 1010.14 1009.86
1022.85 1022.52 1022.19 1021.82 1021.44 1021.08 1020.73 1020.42 1019.90 1019.52 1019.54 1019.68 1019.77 1019.15 1018.46 1017.34 1016.60 1016.18 1015.60 1015.47 1015.10 1014.39 1014.25 1013.93 1013.81 1013.76 1013.59 1013.63 1013.14 1013.25 1012.79 1012.88 1012.35 1012.71 1012.31 1011.78 1012.03 1012.23 1012.09 1011.81 1011.64 1011.57 1011.28 1010.96 1010.61 1010.08 1009.79 1009.51 1009.44 1009.59 1009.90 1010.03 1010.86 1011.23
1022.53 1022.18 1021.90 1021.58 1021.16 1020.79 1020.45 1020.24 1019.98 1019.70 1019.40 1019.38 1019.31 1018.54 1017.68 1016.76 1016.00 1015.14 1014.38 1014.09 1013.84 1013.50 1013.44 1013.51 1013.73 1013.54 1013.66 1013.45 1013.17 1013.01 1012.65 1012.43 1012.67 1012.20 1011.92 1011.93 1012.18 1012.25 1012.21 1012.03 1011.76 1011.64 1011.47 1011.16 1010.87 1010.67 1010.41 1010.31 1010.41 1010.11 1010.52 1010.50 1011.39 1011.53
1022.11 1021.82 1021.49 1021.18 1020.87 1020.60 1020.29 1020.01 1019.71 1019.36 1019.34 1018.95 1018.47 1017.85 1016.80 1015.64 1014.69 1013.71 1013.26 1012.94 1012.77 1012.89 1013.03 1013.22 1013.43 1013.52 1013.47 1013.12 1013.01 1012.62 1012.64 1012.58 1012.13 1011.89 1011.71 1011.96 1012.07 1012.16 1012.27 1012.19 1012.00 1011.73 1011.61 1011.50 1011.42 1011.34 1011.29 1010.96 1010.82 1011.07 1011.00 1010.82 1011.51 1011.98
1021.61 1021.36 1021.01 1020.63 1020.43 1020.32 1020.04 1019.75 1019.49 1019.37 1019.37 1018.84 1018.13 1016.85 1015.55 1014.51 1013.93 1013.37 1013.06 1012.90 1012.67 1012.80 1012.88 1013.21 1013.39 1013.34 1013.16 1013.03 1012.88 1012.60 1012.33 1011.98 1011.96 1011.73 1011.88 1011.96 1012.14 1012.29 1012.31 1012.23 1012.12 1011.94 1011.80 1011.83 1011.94 1011.69 1011.70 1011.67 1011.45 1011.52 1011.19 1010.94 1011.86 1012.06
1021.22 1020.84 1020.51 1020.52 1020.37 1020.10 1019.75 1019.43 1019.44 1019.51 1019.18 1018.46 1017.51 1016.12 1014.81 1014.39 1013.48 1013.10 1012.82 1012.60 1012.63 1012.66 1012.79 1012.81 1012.93 1012.86 1012.74 1012.69 1012.50 1012.09 1011.96 1011.67 1011.69 1011.77 1011.86 1012.17 1012.20 1012.22 1012.21 1012.23 1012.20 1012.08 1011.89 1011.96 1012.17 1012.27 1012.13 1012.38 1012.25 1011.69 1011.57 1011.39 1011.61 1011.90
1021.04 1020.56 1020.32 1020.27 1020.10 1019.80 1019.46 1019.44 1019.37 1019.11 1018.38 1017.29 1015.99 1015.18 1014.83 1014.24 1013.70 1013.18 1012.85 1012.60 1012.77 1012.53 1012.29 1012.42 1012.32 1012.24 1012.56 1012.25 1011.95 1011.90 1011.54 1011.41 1011.48 1011.61 1012.00 1012.21 1012.25 1012.24 1012.20 1012.16 1012.13 1011.95 1011.73 1011.73 1012.09 1012.55 1012.79 1012.59 1012.32 1012.05 1011.74 1011.92 1012.08 1012.25
1020.53 1020.06 1020.13 1020.14 1019.94 1019.63 1019.39 1019.27 1019.05 1018.40 1017.21 1015.99 1015.39 1014.46 1014.23 1013.75 1013.22 1012.86 1012.61 1012.52 1012.59 1012.23 1012.12 1011.80 1011.80 1011.72 1011.62 1011.57 1011.31 1011.16 1011.22 1011.44 1011.58 1011.62 1011.87 1012.03 1012.15 1012.21 1012.18 1012.03 1011.99 1011.84 1011.76 1011.89 1012.35 1012.42 1012.77 1012.61 1012.61 1012.10 1011.90 1012.16 1012.44 1012.75
1019.93 1019.97 1019.97 1020.01 1020.01 1019.95 1019.42 1018.82 1018.58 1017.56 1016.04 1015.26 1014.64 1014.21 1013.76 1013.16 1012.62 1012.28 1012.20 1012.18 1012.24 1012.12 1011.80 1011.50 1011.18 1010.97 1010.87 1010.93 1010.71 1010.63 1011.06 1011.26 1011.28 1011.48 1011.74 1011.94 1012.04 1012.04 1011.99 1011.94 1011.95 1011.81 1011.86 1012.12 1012.44 1012.68 1012.73 1012.86 1012.58 1012.36 1012.38 1012.31 1012.38 1012.53
1019.59 1019.60 1019.63 1019.72 1019.87 1019.75 1019.17 1018.33 1017.75 1016.96 1015.58 1014.67 1014.20 1013.63 1013.14 1012.48 1012.03 1011.76 1011.63 1011.62 1011.71 1011.66 1011.20 1010.64 1010.01 1009.97 1010.02 1009.98 1010.36 1010.55 1010.85 1011.14 1011.23 1011.15 1011.30 1011.52 1011.71 1011.82 1011.75 1011.78 1011.76 1011.77 1011.78 1012.26 1012.36 1012.51 1012.74 1012.56 1012.33 1012.30 1012.17 1012.18 1012.30 1012.15
1019.14 1018.89 1019.02 1019.30 1019.50 1019.47 1019.01 1018.03 1017.21 1016.23 1015.12 1014.44 1013.52 1013.16 1012.38 1011.97 1011.60 1011.26 1011.06 1011.19 1011.36 1010.66 1010.00 1009.60 1009.24 1009.18 1009.41 1009.82 1010.14 1010.41 1010.66 1010.96 1010.76 1010.72 1010.84 1010.96 1011.36 1011.53 1011.53 1011.60 1011.61 1011.65 1011.66 1011.81 1011.99 1012.07 1012.17 1011.78 1011.67 1011.90 1012.01 1012.04 1012.10 1012.13
1018.71 1018.80 1018.91 1019.11 1019.07 1018.91 1018.41 1017.45 1016.91 1015.93 1015.30 1013.89 1013.33 1012.64 1011.93 1011.36 1010.92 1010.61 1010.58 1010.64 1010.01 1009.28 1009.17 1008.88 1008.78 1008.82 1009.14 1009.52 1009.77 1010.02 1010.12 1010.47 1010.67 1010.84 1010.95 1011.01 1010.94 1010.92 1010.90 1011.05 1011.13 1010.95 1011.08 1011.14 1011.26 1011.19 1011.13 1011.18 1011.43 1011.63 1011.72 1011.71 1011.91 1011.84
1018.56 1018.63 1018.52 1018.59 1018.48 1017.97 1017.09 1016.52 1016.25 1015.26 1014.48 1013.24 1012.60 1011.96 1011.30 1010.87 1010.44 1010.52 1010.06 1009.40 1008.69 1008.15 1008.06 1008.21 1008.34 1008.61 1008.77 1009.11 1009.40 1009.73 1009.95 1010.11 1010.13 1010.26 1010.35 1010.39 1010.47 1010.52 1010.52 1010.51 1010.51 1010.45 1010.44 1010.58 1010.81 1010.80 1010.87 1011.23 1011.29 1011.25 1011.29 1011.44 1011.38 1011.30
1018.37 1018.20 1017.86 1017.62 1017.43 1016.64 1016.17 1015.75 1015.22 1014.54 1013.62 1012.88 1012.06 1011.22 1010.55 1010.11 1010.14 1009.96 1009.23 1008.43 1007.84 1007.97 1008.03 1008.10 1008.27 1008.52 1008.89 1009.06 1009.04 1009.18 1009.48 1009.65 1009.65 1009.81 1009.88 1009.95 1009.82 1009.86 1010.03 1009.97 1010.04 1010.10 1010.14 1010.16 1010.27 1010.41 1010.66 1010.86 1010.93 1010.95 1010.88 1010.86 1010.85 1010.80
1018.22 1017.83 1017.55 1016.81 1016.28 1015.98 1015.41 1014.72 1014.03 1013.48 1012.66 1012.00 1011.49 1010.58 1009.85 1009.74 1009.43 1008.87 1008.42 1008.14 1008.07 1007.87 1007.89 1007.87 1007.91 1007.94 1007.98 1008.12 1008.31 1008.71 1009.15 1009.11 1009.03 1009.02 1009.25 1009.47 1009.35 1009.43 1009.45 1009.41 1009.42 1009.43 1009.60 1009.71 1009.75 1009.79 1009.90 1010.14 1010.24 1010.29 1010.30 1010.33 1010.35 1010.35
1017.36 1016.71 1016.55 1015.75 1015.37 1015.14 1014.45 1013.65 1012.96 1012.44 1011.98 1011.33 1010.65 1009.98 1009.57 1009.17 1008.73 1008.40 1008.48 1008.44 1008.22 1008.02 1007.81 1007.58 1007.44 1007.65 1007.71 1007.59 1007.66 1008.03 1008.28 1008.71 1008.81 1008.69 1008.54 1008.79 1008.76 1008.70 1008.51 1008.57 1008.48 1008.41 1008.96 1009.06 1009.12 1009.19 1009.33 1009.53 1009.62 1009.79 1009.82 1009.87 1010.21 1010.26
1016.45 1015.72 1015.43 1015.13 1014.93 1014.61 1013.92 1013.12 1012.62 1012.10 1011.33 1010.51 1009.85 1009.50 1009.06 1008.56 1008.18 1008.45 1008.44 1008.45 1008.28 1008.10 1008.08 1007.78 1007.48 1007.18 1007.04 1007.19 1007.55 1007.85 1007.98 1008.26 1008.30 1008.11 1008.13 1008.22 1008.20 1008.21 1008.09 1007.90 1007.76 1008.10 1008.26 1008.59 1008.69 1008.78 1008.77 1008.89 1009.04 1009.17 1009.21 1009.29 1009.42 1009.50
1015.60 1015.04 1014.74 1014.60 1014.46 1014.05 1013.37 1012.52 1011.82 1011.08 1010.44 1009.93 1009.68 1009.09 1008.55 1008.11 1008.14 1008.31 1008.31 1008.19 1008.16 1007.99 1007.77 1007.41 1007.23 1007.00 1006.76 1006.83 1007.03 1007.22 1007.54 1007.76 1007.85 1007.90 1007.82 1007.60 1007.53 1007.48 1007.54 1007.57 1007.68 1008.08 1008.10 1008.20 1008.30 1008.34 1008.37 1008.42 1008.51 1008.59 1008.71 1008.77 1008.85 1008.99
1015.04 1014.52 1014.38 1013.97 1013.69 1013.21 1012.53 1011.83 1010.94 1010.27 1010.00 1009.76 1009.45 1009.11 1008.65 1008.38 1008.24 1008.13 1007.87 1007.78 1007.80 1007.71 1007.34 1006.82 1006.39 1006.45 1006.43 1006.51 1006.66 1006.76 1006.84 1006.99 1007.10 1006.94 1006.71 1006.33 1006.09 1006.15 1006.55 1006.78 1006.92 1007.18 1007.37 1007.55 1008.07 1008.08 1007.96 1008.10 1008.17 1008.31 1008.29 1008.40 1008.43 1008.56
1014.18 1013.93 1013.64 1013.17 1012.67 1011.96 1011.23 1010.70 1010.14 1009.88 1009.83 1009.67 1009.45 1009.08 1008.69 1008.23 1007.86 1007.79 1007.38 1007.01 1007.00 1006.74 1006.51 1006.35 1006.14 1005.90 1005.57 1005.48 1005.50 1005.89 1006.20 1006.28 1006.25 1006.01 1005.67 1005.48 1005.26 1005.32 1005.74 1006.00 1006.17 1006.40 1006.78 1007.02 1007.34 1007.76 1008.37 1008.26 1008.49 1008.28 1008.27 1008.12 1008.12 1008.11
1013.25 1013.21 1012.97 1012.34 1011.43 1010.67 1010.22 1009.93 1009.76 1009.68 1009.44 1009.08 1008.90 1008.72 1008.22 1007.92 1007.25 1006.78 1006.56 1006.12 1005.96 1005.91 1005.94 1005.77 1005.49 1005.32 1005.17 1004.99 1004.84 1004.76 1004.80 1005.13 1005.21 1005.25 1005.20 1005.05 1005.04 1005.11 1005.36 1005.59 1005.73 1005.90 1006.26 1006.48 1006.81 1007.17 1007.45 1007.58 1007.57 1007.54 1007.53 1007.56 1007.59 1007.82
1012.59 1012.24 1011.96 1011.35 1010.52 1009.96 1009.81 1009.40 1008.88 1008.41 1007.97 1007.76 1007.55 1007.55 1007.60 1007.61 1007.12 1005.96 1005.22 1005.39 1005.35 1005.24 1005.09 1004.99 1004.74 1004.38 1004.48 1004.50 1004.50 1004.49 1004.44 1004.40 1004.51 1004.72 1004.90 1004.87 1004.78 1004.61 1004.71 1005.09 1005.27 1005.36 1005.67 1005.91 1006.17 1006.39 1006.69 1006.83 1006.82 1006.93 1007.00 1007.11 1007.18 1007.22
1011.71 1011.48 1011.20 1010.79 1009.92 1009.24 1008.75 1008.55 1008.00 1007.36 1006.97 1006.54 1006.22 1006.18 1006.50 1006.55 1005.99 1005.18 1005.05 1005.11 1005.07 1005.03 1004.83 1004.62 1004.55 1004.38 1004.34 1004.42 1004.35 1004.36 1004.52 1004.32 1004.34 1004.52 1004.55 1004.51 1004.50 1004.57 1004.59 1004.63 1004.74 1004.85 1004.98 1005.26 1005.50 1005.72 1006.01 1006.20 1006.29 1006.47 1006.60 1006.66 1006.69 1006.78
Wind_Speed
11 12 12 12 13 13 14 14 15 16 17 17 18 17 17 16 15 7 3 2 3 2 7 6 3 4 3 2 2 4 4 2 2 2 3 1 4 3 3 2 3 6 5 5 2 5 9 2 2 6 6 6 6 4
10 12 13 11 13 13 14 14 15 15 17 17 18 18 17 15 14 8 2 2 2 4 5 3 7 10 8 7 4 3 4 2 1 1 0 2 2 2 3 7 2 5 3 3 6 2 2 3 6 6 7 7 5 4
11 11 13 13 13 13 14 15 15 16 17 18 18 18 17 14 11 6 3 3 2 3 5 4 3 2 5 13 14 4 3 1 2 2 1 1 4 1 3 2 3 3 2 3 4 1 5 4 5 4 3 6 7 3
12 12 13 13 13 13 13 15 15 16 17 18 19 18 17 13 10 5 3 1 2 2 4 2 3 5 1 5 10 15 1 1 2 1 2 2 3 2 2 4 4 4 4 5 5 6 10 1 5 7 5 3 4 5
12 12 12 13 13 14 14 15 15 17 18 18 18 18 17 14 10 5 4 3 3 3 4 6 12 2 6 6 10 10 12 6 2 2 3 4 1 3 2 2 4 1 4 3 4 4 5 9 9 12 8 2 3 3
12 13 12 13 13 14 15 15 16 18 19 19 19 19 16 12 7 2 2 4 6 3 2 4 4 5 5 6 7 7 6 5 3 3 2 2 1 3 3 2 3 5 6 7 6 13 15 16 12 7 7 2 4 6
13 13 13 13 14 14 15 16 17 18 19 19 20 20 17 10 4 3 2 3 7 3 2 4 5 2 5 2 2 2 3 2 2 1 2 2 1 2 2 8 7 10 10 8 5 12 8 3 7 6 3 5 7 8
14 13 13 14 14 15 16 16 18 19 20 21 21 18 10 9 2 2 2 7 4 1 2 3 3 3 6 3 2 3 1 1 2 1 1 2 1 1 4 5 10 12 15 2 13 10 12 13 5 1 4 7 8 8
13 13 13 14 14 15 16 17 18 19 21 22 18 2 3 2 1 2 5 10 2 3 2 2 2 2 5 2 2 0 2 2 1 1 1 3 1 0 5 10 13 13 10 14 17 14 9 7 4 4 7 8 9 9
14 14 13 14 14 15 16 18 19 20 22 14 1 1 1 2 9 1 4 3 3 2 1 3 0 2 2 2 1 2 1 2 1 3 2 1 2 3 4 8 8 8 9 10 13 12 13 8 3 2 6 5 8 8
13 14 14 13 14 14 16 17 18 18 7 4 5 2 5 9 2 2 2 3 2 3 4 3 4 3 1 2 2 2 1 1 2 3 3 0 1 3 7 8 7 8 9 8 7 9 10 9 6 6 4 2 1 8
13 14 14 13 14 14 14 15 13 5 2 3 4 4 3 2 1 3 2 1 4 2 3 3 2 3 1 1 2 2 1 1 2 2 2 2 1 4 7 10 10 9 10 9 8 7 5 3 4 5 5 10 5 6
13 13 14 13 13 13 14 9 8 7 4 1 2 2 1 2 1 5 5 3 3 4 4 3 2 1 2 1 1 2 3 1 1 2 1 1 2 4 6 8 9 8 8 6 7 8 6 6 5 7 7 9 6 7
12 13 14 13 12 11 9 10 10 6 1 2 2 5 4 4 4 4 3 1 1 2 4 2 2 0 1 2 0 2 1 2 2 2 1 1 3 5 6 6 6 8 8 7 5 5 7 7 7 3 6 9 7 10
12 14 15 12 5 6 9 11 9 1 1 3 2 5 5 3 3 3 3 3 2 2 3 3 2 1 1 1 1 1 2 2 2 1 2 2 5 5 7 6 6 5 6 5 4 5 6 6 6 2 5 9 9 8
11 13 2 3 7 9 10 6 1 1 2 3 5 4 4 3 3 1 2 3 3 3 3 1 2 1 1 1 3 2 1 1 1 2 2 3 5 6 6 5 5 5 2 2 4 5 7 6 1 2 4 6 7 7
7 4 2 4 8 12 5 1 0 3 4 4 4 4 5 5 6 4 2 1 1 3 2 2 3 1 3 1 2 3 2 2 2 3 1 4 5 5 5 5 4 4 5 4 6 6 4 4 3 2 4 3 5 7
5 3 3 4 7 4 1 2 2 3 6 5 4 2 3 4 4 3 3 2 2 2 3 4 4 4 2 2 2 2 4 3 4 4 3 3 4 4 4 5 4 4 3 3 7 8 3 5 4 2 5 6 7 5
4 2 4 4 2 2 2 3 3 4 6 3 4 4 4 4 5 6 5 3 3 2 2 3 3 3 3 4 4 4 3 3 2 0 1 3 4 4 3 3 2 2 2 5 5 3 1 5 3 1 3 3 3 2
10 10 10 8 2 1 3 3 2 4 4 1 3 3 3 4 2 2 3 3 4 3 4 4 5 3 4 3 4 3 2 2 3 1 1 2 2 1 0 1 2 3 3 3 3 3 3 3 2 2 2 2 2 1
5 2 6 6 3 3 3 2 3 4 4 4 2 2 4 2 4 4 4 4 3 4 4 4 4 4 4 2 2 3 4 4 4 2 1 1 2 2 1 1 2 3 3 4 4 4 5 4 2 3 3 4 3 3
2 7 2 3 3 4 4 4 3 3 3 4 3 3 4 3 3 3 3 4 4 4 4 4 3 4 4 4 4 7 5 7 4 3 2 2 3 3 3 3 3 2 3 3 3 3 3 3 3 3 4 3 3 3
4 4 2 4 4 4 5 2 3 3 4 3 2 3 3 3 2 2 3 3 4 5 5 5 3 3 2 4 6 6 6 8 5 4 3 3 3 3 3 3 3 2 2 3 3 3 2 2 4 4 3 3 3 3
1 3 3 4 6 3 1 3 3 3 3 3 3 4 3 2 3 3 3 3 2 1 3 5 4 4 3 5 6 6 6 5 4 3 3 3 4 4 4 3 4 4 3 1 3 4 4 4 4 5 4 5 4 4
3 4 3 5 3 4 4 3 4 3 4 3 3 4 3 1 3 3 2 2 2 2 1 3 5 5 3 5 5 5 6 6 5 4 3 5 3 2 3 4 5 5 5 5 5 5 4 4 4 5 5 5 6 5
4 6 5 5 3 3 3 4 4 5 3 3 4 3 1 3 3 1 1 3 3 3 3 2 4 4 3 4 7 6 7 7 4 4 3 5 5 5 4 3 3 2 6 7 5 6 6 5 5 7 7 7 7 6
4 5 4 2 1 2 4 5 4 3 3 4 3 2 2 3 2 3 0 1 2 1 2 3 3 4 3 4 4 3 3 6 6 3 1 3 4 6 6 5 6 4 4 7 8 8 8 8 8 7 7 5 6 6
3 2 4 4 3 4 4 3 3 4 4 2 2 3 2 2 2 2 0 3 4 4 4 5 5 5 5 5 4 3 4 4 5 5 5 7 8 7 7 6 5 6 5 6 7 7 8 8 8 8 7 7 5 4
3 2 3 4 3 4 5 5 4 3 2 2 1 2 2 2 0 3 4 4 4 4 5 5 3 3 4 4 4 5 5 6 6 6 7 6 5 4 5 5 4 5 4 5 8 8 7 7 7 7 7 5 4 3
4 4 3 4 5 7 5 6 3 2 2 2 2 3 4 4 3 5 8 8 5 5 4 4 4 4 4 5 6 6 6 7 8 7 6 7 9 5 4 4 5 5 6 5 4 5 4 6 5 5 5 4 4 5
1 4 3 4 4 5 9 8 6 4 5 6 7 8 10 7 7 7 8 8 6 4 5 5 5 5 5 5 6 6 6 8 10 12 10 7 7 5 4 4 5 5 7 7 7 6 6 6 6 6 6 6 6 6
4 6 4 5 4 4 3 4 6 8 10 10 11 10 8 6 6 4 3 4 4 5 4 4 5 5 5 5 4 5 7 5 3 4 7 7 8 10 6 5 6 7 8 9 9 8 10 10 7 7 7 8 8 8
4 4 4 5 4 4 3 4 4 4 4 3 4 8 9 6 6 3 2 3 3 4 4 4 5 6 6 6 6 5 5 7 8 8 10 12 12 7 5 5 6 8 10 10 10 10 11 12 10 9 9 10 10 9
Wind_Direction
330 330 325 326 328 330 332 334 336 338 340 342 344 346 349 353 357 356 315 345 331 279 275 225 245 218 184 219 284 4 287 168 311 308 293 181 235 186 229 250 235 248 249 235 187 238 267 28 174 235 353 322 310 313
321 324 326 320 323 324 326 327 327 329 332 336 338 340 343 347 351 3 289 28 335 238 285 298 266 263 259 269 277 232 318 270 302 303 192 274 260 251 307 239 161 225 263 317 241 300 4 288 273 298 291 287 320 349
312 318 325 324 319 317 321 322 323 324 325 327 330 333 334 337 337 336 287 302 258 277 273 268 237 185 220 228 224 239 208 294 177 325 337 351 271 242 264 239 282 178 182 250 279 144 284 281 270 261 289 296 333 14
316 316 320 317 318 316 317 317 317 317 318 319 322 324 325 326 324 306 261 173 270 296 298 305 318 298 207 176 197 217 312 67 49 279 269 281 282 176 289 339 291 4 290 338 291 297 312 235 275 307 314 344 21 70
315 311 314 314 315 316 316 315 314 315 316 316 314 315 315 318 312 275 244 226 248 307 311 299 307 257 288 265 226 211 218 245 304 269 229 267 249 223 185 236 245 190 3 303 297 319 285 294 330 333 284 285 57 101
314 313 309 313 314 315 316 313 313 313 313 313 310 309 311 310 307 229 230 176 205 223 282 302 343 277 332 42 114 159 178 192 226 246 240 228 321 268 282 294 38 8 334 306 290 316 291 283 290 304 269 183 118 117
315 315 314 311 313 315 315 314 313 313 313 311 309 308 305 280 201 240 16 51 159 194 260 294 306 333 320 331 79 99 127 139 253 258 231 309 117 282 252 275 351 346 332 325 2 328 279 254 332 323 237 132 108 101
318 313 313 313 313 314 314 314 314 314 313 312 311 313 329 137 208 215 72 186 170 267 253 286 284 297 8 5 20 356 5 161 60 330 203 343 213 263 247 7 334 337 331 259 350 332 284 290 278 189 156 146 139 119
316 314 312 312 314 315 316 317 317 315 314 313 315 281 193 226 164 91 335 131 197 283 288 250 291 345 349 45 312 197 336 277 1 352 58 284 317 307 355 327 323 333 326 310 321 323 336 316 298 214 176 166 149 142
316 313 310 314 315 317 319 321 320 319 317 317 302 253 194 87 322 231 151 189 186 184 218 257 209 276 316 352 53 299 12 29 279 68 295 346 93 307 337 329 325 330 326 324 320 333 341 332 292 211 238 220 160 155
315 318 314 314 315 317 323 323 324 325 339 21 5 328 333 315 201 203 214 219 159 223 189 238 222 286 109 286 343 1 357 349 271 82 327 78 168 326 334 333 347 349 341 332 310 296 297 277 259 207 155 21 56 137
314 317 315 312 314 317 322 326 337 358 16 309 291 289 286 267 156 234 219 185 217 243 187 202 184 223 150 231 254 150 275 216 250 359 265 217 129 292 318 333 342 351 352 353 345 336 349 355 166 135 123 106 98 86
310 314 315 310 312 318 318 324 338 314 306 181 232 263 3 183 172 217 195 197 226 190 189 183 175 198 174 213 217 247 240 252 269 226 283 258 267 290 317 327 334 351 349 354 15 22 47 71 87 125 135 107 118 119
304 307 308 304 301 309 334 337 334 337 316 310 328 309 209 197 237 211 220 218 280 191 156 152 123 195 68 219 320 256 72 258 253 251 342 290 279 299 318 322 324 349 357 354 18 34 43 63 74 117 144 130 149 144
302 304 303 305 342 330 330 331 328 2 335 276 235 241 229 266 269 272 279 274 198 155 145 134 103 244 110 227 288 285 208 243 254 344 285 266 298 301 303 306 327 340 2 8 13 56 64 51 55 20 112 107 137 135
303 306 255 294 323 321 323 325 56 84 239 243 235 256 233 271 264 254 261 257 157 153 132 118 119 170 169 243 223 225 229 237 290 236 256 289 292 297 290 288 315 315 197 81 62 44 35 19 9 280 122 130 147 153
293 241 207 315 324 312 306 246 186 230 252 237 239 235 261 273 259 274 255 280 146 201 181 155 199 186 121 224 240 197 220 237 252 277 246 251 267 290 297 291 286 300 257 206 127 82 43 310 341 207 125 114 149 131
236 239 239 319 333 305 230 204 237 256 250 239 246 248 208 240 266 251 236 205 201 235 176 192 130 193 199 204 234 225 241 264 256 274 286 260 251 262 270 288 290 297 274 225 107 92 350 335 317 8 106 125 125 118
228 250 285 258 318 301 286 220 202 257 250 261 252 247 249 251 240 249 246 220 232 261 186 181 164 184 204 210 236 258 237 225 256 210 258 255 252 266 314 316 291 332 93 139 134 90 308 326 307 196 168 135 137 136
253 261 255 213 202 242 254 244 211 263 267 296 254 248 240 244 269 241 224 197 181 195 196 210 197 195 209 237 207 245 235 172 206 185 160 205 214 242 34 23 64 100 110 123 102 168 257 274 243 218 191 169 209 207
221 215 202 176 193 222 275 279 250 244 290 267 282 257 262 232 236 221 218 157 189 217 218 217 212 216 202 217 195 193 176 170 201 241 99 139 168 226 181 170 131 126 141 158 195 223 216 218 188 189 195 211 224 249
198 174 142 183 214 204 243 216 247 298 264 272 278 227 263 258 240 215 140 190 226 218 205 196 214 227 212 213 196 195 179 176 151 151 172 156 178 196 210 195 187 166 156 163 183 184 172 176 181 184 193 187 207 238
177 181 211 172 224 216 255 159 234 221 254 258 253 247 231 239 223 151 238 224 245 215 205 210 211 197 216 153 152 160 173 175 172 193 179 207 218 209 214 201 204 203 171 171 195 200 195 146 184 211 193 215 236 255
160 203 221 214 202 246 208 220 221 251 246 244 239 261 240 235 159 216 250 234 241 36 194 197 181 158 131 149 181 181 181 195 187 174 171 191 221 214 217 232 218 226 241 204 197 192 190 204 194 201 202 206 224 252
175 223 206 236 217 218 210 227 218 226 249 222 249 252 237 207 237 228 244 321 329 306 257 198 196 212 179 173 173 185 183 198 203 209 185 214 238 212 217 229 236 231 203 214 221 218 194 190 191 202 209 223 243 258
220 206 201 208 179 218 206 242 218 221 237 246 238 258 253 233 230 226 45 320 322 320 317 239 196 170 206 198 172 181 191 195 195 223 231 209 218 238 248 233 258 229 194 215 223 215 207 203 200 207 225 235 233 260
234 227 196 228 236 250 253 248 255 262 254 239 235 237 238 238 174 100 327 290 293 304 308 312 251 211 199 180 183 169 139 175 204 232 217 215 231 230 238 246 246 228 189 196 204 215 214 198 202 210 227 239 250 254
257 264 214 173 199 224 271 282 239 229 236 242 263 246 269 323 120 136 193 309 281 295 287 281 264 254 239 224 217 192 180 199 223 249 264 252 233 234 230 241 250 184 229 222 224 221 217 216 212 214 220 242 263 249
234 223 203 215 205 226 224 226 239 234 224 221 252 274 285 304 216 310 299 291 293 281 280 280 251 210 226 214 216 212 204 193 205 226 240 258 265 234 195 208 216 201 200 198 201 234 228 220 216 217 226 249 259 234
233 193 222 222 209 215 225 212 235 241 224 254 281 273 261 268 283 288 292 291 270 263 258 282 277 240 237 206 194 190 202 210 218 237 241 248 255 266 203 192 190 184 172 172 183 130 114 167 138 180 197 208 224 242
235 183 227 236 255 243 242 252 260 255 244 249 247 260 274 294 294 269 247 256 258 247 248 248 223 214 226 209 205 206 208 196 217 229 242 261 276 275 246 225 218 193 177 180 178 184 180 188 201 207 214 227 235 244
210 211 215 241 253 247 261 240 248 253 254 246 246 241 241 249 262 265 224 206 239 260 258 261 263 252 213 237 247 244 251 267 226 239 252 244 251 254 249 223 210 198 192 194 196 199 206 215 212 214 225 239 249 254
221 221 227 257 255 252 215 224 237 257 223 239 231 211 204 207 238 255 158 211 247 287 297 300 290 284 284 283 282 294 284 273 275 265 252 249 257 287 282 226 204 198 198 203 204 206 209 217 227 233 238 245 254 263